GW4072 Weather Reports


time (UTC)temp
F
wind
direction
speed
knots
gust
knots
rain 1hr
in
rain 24hr
in
rain mn
in
humidity
%
barometer
mb
20260502194537 65 299 1.7 9.6 0.00 0.00 0.00 31 1011.6
20260502194024 65 134 3.5 9.6 0.00 0.00 0.00 32 1011.8
20260502193525 66 283 1.7 9.6 0.00 0.00 0.00 31 1011.9
20260502193045 66 328 3.5 9.6 0.00 0.00 0.00 30 1012.0
20260502192527 66 207 1.7 7.8 0.00 0.00 0.00 30 1012.0
20260502192026 66 219 4.3 8.7 0.00 0.00 0.00 30 1012.0
20260502191545 65 260 3.5 8.7 0.00 0.00 0.00 31 1012.0
20260502191025 65 219 3.5 8.7 0.00 0.00 0.00 31 1012.2
20260502190525 65 187 4.3 8.7 0.00 0.00 0.00 31 1012.2
20260502190041 65 108 2.6 4.3 0.00 0.00 0.00 31 1012.3
20260502185524 63 167 1.7 7.8 0.00 0.00 0.00 32 1012.4
20260502185027 62 221 1.7 9.6 0.00 0.00 0.00 32 1012.6
20260502184547 62 268 2.6 9.6 0.00 0.00 0.00 31 1012.7
20260502184024 62 231 2.6 7.8 0.00 0.00 0.00 31 1012.6
20260502183528 63 292 1.7 7.8 0.00 0.00 0.00 32 1012.7
20260502183037 62 226 2.6 8.7 0.00 0.00 0.00 33 1012.8
20260502182531 62 184 3.5 8.7 0.00 0.00 0.00 32 1013.0
20260502182028 62 96 2.6 9.6 0.00 0.00 0.00 33 1013.1
20260502181604 62 206 3.5 9.6 0.00 0.00 0.00 31 1013.2
20260502181027 63 197 1.7 9.6 0.00 0.00 0.00 31 1013.3
20260502180527 63 176 2.6 7.0 0.00 0.00 0.00 32 1013.4
20260502164025 59 181 1.7 5.2 0.00 0.00 0.00 34 1015.3
20260502163530 59 146 1.7 5.2 0.00 0.00 0.00 35 1015.3
20260502163042 59 153 2.6 5.2 0.00 0.00 0.00 34 1015.3
20260502162525 59 185 1.7 7.8 0.00 0.00 0.00 36 1015.4
20260502162025 58 224 1.7 7.8 0.00 0.00 0.00 34 1015.4
20260502161544 58 257 1.7 6.1 0.00 0.00 0.00 36 1015.5
20260502161024 58 162 2.6 6.1 0.00 0.00 0.00 35 1015.5
20260502160527 58 202 2.6 6.1 0.00 0.00 0.00 35 1015.7
20260502152032 55 214 4.3 7.8 0.00 0.00 0.00 38 1016.2
20260502151600 55 137 3.5 7.0 0.00 0.00 0.00 38 1016.4
20260502151031 55 321 0.9 5.2 0.00 0.00 0.00 38 1016.4
20260502150529 54 236 1.7 5.2 0.00 0.00 0.00 38 1016.4
20260502130528 41 200 0.0 1.7 0.00 0.00 0.00 60 1018.0
20260502123528 36 213 0.0 1.7 0.00 0.00 0.00 68 1017.9
20260502123045 35 190 0.0 0.9 0.00 0.00 0.00 71 1017.9
20260502122529 35 199 0.0 0.9 0.00 0.00 0.00 72 1018.0
20260502122028 34 199 0.0 0.9 0.00 0.00 0.00 72 1018.1
20260502121544 34 0 0.0 0.9 0.00 0.00 0.00 74 1018.1
20260502121031 33 175 0.0 0.9 0.00 0.00 0.00 75 1018.1
20260502120530 33 169 0.0 0.9 0.00 0.00 0.00 77 1018.1
20260502115528 32 165 0.0 0.9 0.00 0.00 0.00 79 1018.1
20260502115032 31 0 0.0 0.9 0.00 0.00 0.00 80 1018.3
20260502114549 30 30 0.0 0.9 0.00 0.00 0.00 81 1018.2
20260502114029 30 0 0.0 0.0 0.00 0.00 0.00 81 1018.1
20260502113529 29 0 0.0 0.0 0.00 0.00 0.00 80 1018.3
20260502113049 29 0 0.0 0.0 0.00 0.00 0.00 80 1018.3
20260502112528 29 0 0.0 0.0 0.00 0.00 0.00 80 1018.3
20260502112028 29 0 0.0 0.0 0.00 0.00 0.00 80 1018.2
20260502111548 29 0 0.0 0.0 0.00 0.00 0.00 80 1018.2
20260502111028 29 0 0.0 0.0 0.00 0.00 0.00 80 1018.1
20260502110528 29 0 0.0 0.0 0.00 0.00 0.00 79 1018.2
20260502110046 29 0 0.0 0.0 0.00 0.00 0.00 78 1018.3
20260502105531 30 0 0.0 0.0 0.00 0.00 0.00 78 1018.2
20260502105033 30 0 0.0 0.0 0.00 0.00 0.00 79 1018.2
20260502104544 30 0 0.0 0.0 0.00 0.00 0.00 79 1018.3
20260502104028 30 0 0.0 0.0 0.00 0.00 0.00 78 1018.3
20260502103534 30 0 0.0 0.0 0.00 0.00 0.00 79 1018.3
20260502103043 30 0 0.0 0.0 0.00 0.00 0.00 80 1018.4
20260502102529 30 0 0.0 0.0 0.00 0.00 0.00 80 1018.4
20260502102029 30 0 0.0 0.9 0.00 0.00 0.00 79 1018.4
20260502101545 30 0 0.0 0.9 0.00 0.00 0.00 80 1018.5
20260502101028 29 0 0.0 0.9 0.00 0.00 0.00 81 1018.5
20260502100528 29 29 0.0 0.0 0.00 0.00 0.00 80 1018.4
20260502091028 30 0 0.0 0.0 0.00 0.00 0.00 76 1018.4
20260502090530 30 0 0.0 0.0 0.00 0.00 0.00 77 1018.4
20260502071028 32 0 0.0 0.0 0.00 0.00 0.00 73 1018.9
20260502070529 33 0 0.0 0.0 0.00 0.00 0.00 73 1018.9
20260502070040 33 0 0.0 0.0 0.00 0.00 0.00 73 1018.9
20260502065529 33 0 0.0 0.0 0.00 0.00 0.00 73 1018.9
20260502065031 33 0 0.0 0.0 0.00 0.00 0.00 73 1019.0
20260502064555 33 0 0.0 0.0 0.00 0.00 0.00 73 1019.0
20260502064030 33 0 0.0 0.0 0.00 0.00 0.00 72 1019.0
20260502063530 33 0 0.0 0.0 0.00 0.00 0.00 72 1019.1
20260502063045 33 0 0.0 0.0 0.00 0.00 0.00 72 1019.1
20260502062528 33 0 0.0 0.0 0.00 0.00 0.00 71 1019.1
20260502062027 33 0 0.0 0.0 0.00 0.00 0.00 71 1019.1
20260502061541 33 0 0.0 0.0 0.00 0.00 0.00 72 1019.2
20260502061028 33 0 0.0 0.0 0.00 0.00 0.00 70 1019.2
20260502060528 34 0 0.0 0.0 0.00 0.00 0.00 69 1019.1
20260502060043 34 0 0.0 0.0 0.00 0.00 0.00 70 1019.2
20260502055529 34 0 0.0 0.0 0.00 0.00 0.00 68 1019.2
20260502055029 35 0 0.0 0.0 0.00 0.00 0.00 68 1019.2
20260502054548 35 0 0.0 0.0 0.00 0.00 0.00 67 1019.1
20260502054028 35 0 0.0 0.0 0.00 0.00 0.00 67 1019.1
20260502053529 35 0 0.0 0.0 0.00 0.00 0.00 68 1019.2
20260502053048 35 0 0.0 0.0 0.00 0.00 0.00 68 1019.1
20260502052528 35 0 0.0 0.0 0.00 0.00 0.00 68 1018.9
20260502052029 35 0 0.0 0.0 0.00 0.00 0.00 68 1019.1
20260502051547 36 0 0.0 0.0 0.00 0.00 0.00 67 1019.1
20260502051028 36 0 0.0 0.0 0.00 0.00 0.00 64 1019.1
20260502050526 36 0 0.0 0.0 0.00 0.00 0.00 64 1019.1
20260502050045 37 0 0.0 0.0 0.00 0.00 0.00 63 1019.1
20260502045528 37 0 0.0 0.0 0.00 0.00 0.00 62 1019.1
20260502045028 37 0 0.0 0.0 0.00 0.00 0.00 62 1019.1
20260502044542 37 0 0.0 0.0 0.00 0.00 0.00 61 1019.2
20260502044028 37 0 0.0 0.0 0.00 0.00 0.00 60 1019.2
20260502043529 37 0 0.0 0.0 0.00 0.00 0.00 60 1019.2
20260502043053 38 0 0.0 0.0 0.00 0.00 0.00 60 1019.2
20260502042529 38 0 0.0 0.0 0.00 0.00 0.00 59 1019.2
20260502042029 38 0 0.0 0.0 0.00 0.00 0.00 59 1019.2
20260502041549 38 0 0.0 0.0 0.00 0.00 0.00 58 1019.2
20260502041028 38 0 0.0 0.0 0.00 0.00 0.00 58 1019.2
20260502040528 38 0 0.0 0.0 0.00 0.00 0.00 57 1019.3
20260502040058 38 0 0.0 0.0 0.00 0.00 0.00 56 1019.3
20260502035528 39 0 0.0 0.0 0.00 0.00 0.00 55 1019.3
20260502035028 39 0 0.0 0.0 0.00 0.00 0.00 55 1019.3
20260502034547 39 0 0.0 0.0 0.00 0.00 0.00 54 1019.3
20260502034030 39 0 0.0 0.0 0.00 0.00 0.00 54 1019.3
20260502033531 39 0 0.0 0.0 0.00 0.00 0.00 54 1019.3
20260502033048 40 0 0.0 0.0 0.00 0.00 0.00 53 1019.3
20260502032532 40 0 0.0 0.0 0.00 0.00 0.00 50 1019.3
20260502032029 40 0 0.0 0.0 0.00 0.00 0.00 50 1019.3
20260502031548 40 0 0.0 0.0 0.00 0.00 0.00 51 1019.2
20260502031029 40 0 0.0 0.0 0.00 0.00 0.00 50 1019.2
20260502030530 40 0 0.0 0.0 0.00 0.00 0.00 49 1019.1
20260502030043 41 0 0.0 0.0 0.00 0.00 0.00 50 1019.2
20260502025528 41 0 0.0 0.0 0.00 0.00 0.00 48 1019.1
20260502025028 41 0 0.0 0.0 0.00 0.00 0.00 47 1019.1
20260502024545 41 0 0.0 0.0 0.00 0.00 0.00 44 1019.1
20260502024025 42 0 0.0 0.0 0.00 0.00 0.00 43 1019.0
20260502023531 42 0 0.0 0.0 0.00 0.00 0.00 41 1019.1
20260502023050 43 0 0.0 0.0 0.00 0.00 0.00 40 1019.1
20260502022528 44 0 0.0 0.0 0.00 0.00 0.00 40 1019.0
20260502022028 44 0 0.0 0.0 0.00 0.00 0.00 40 1019.0
20260502021544 45 0 0.0 0.0 0.00 0.00 0.00 39 1018.9
20260502021030 45 0 0.0 0.0 0.00 0.00 0.00 39 1018.9
20260502020528 46 0 0.0 0.0 0.00 0.00 0.00 38 1018.9
20260502020053 46 0 0.0 0.0 0.00 0.00 0.00 38 1018.9
20260502015526 47 0 0.0 0.9 0.00 0.00 0.00 36 1018.9
20260502015027 47 0 0.0 0.9 0.00 0.00 0.00 36 1018.7
20260502014550 47 0 0.0 0.9 0.00 0.00 0.00 35 1018.7
20260502014028 47 0 0.0 0.9 0.00 0.00 0.00 34 1018.7
20260502013528 48 0 0.0 0.9 0.00 0.00 0.00 34 1018.6
20260502013047 48 0 0.0 0.0 0.00 0.00 0.00 33 1018.7
20260502012525 49 0 0.0 0.0 0.00 0.00 0.00 33 1018.7
20260502012031 49 0 0.0 1.7 0.00 0.00 0.00 32 1018.5
20260502011552 50 0 0.0 2.6 0.00 0.00 0.00 31 1018.5
20260502011028 50 351 0.9 2.6 0.00 0.00 0.00 31 1018.5
20260502010528 50 32 0.0 2.6 0.00 0.00 0.00 31 1018.5
20260502010044 51 0 0.0 2.6 0.00 0.00 0.00 31 1018.5
20260502005528 51 35 0.0 2.6 0.00 0.00 0.00 30 1018.5
20260502005025 51 63 0.9 2.6 0.00 0.00 0.00 29 1018.4
20260502004547 52 8 0.9 2.6 0.00 0.00 0.00 30 1018.4
20260502004028 52 79 1.7 3.5 0.00 0.00 0.00 29 1018.4
20260502003530 52 34 0.9 3.5 0.00 0.00 0.00 29 1018.4
20260502003039 52 45 1.7 3.5 0.00 0.00 0.00 29 1018.4
20260502002528 52 18 0.9 3.5 0.00 0.00 0.00 28 1018.3
20260502002025 52 23 0.9 7.0 0.00 0.00 0.00 28 1018.2
20260502001624 53 346 1.7 7.0 0.00 0.00 0.00 28 1018.2
20260502001025 53 340 0.9 3.5 0.00 0.00 0.00 28 1018.3
20260502000525 53 68 0.9 6.1 0.00 0.00 0.00 29 1018.2
20260502000048 53 314 0.9 6.1 0.00 0.00 0.00 28 1018.2
20260501235526 54 19 0.9 4.3 0.00 0.00 0.00 28 1018.1
20260501235028 54 49 1.7 6.1 0.00 0.00 0.00 28 1018.1
20260501234545 54 48 1.7 6.1 0.00 0.00 0.00 28 1018.2
20260501234028 54 345 0.9 6.1 0.00 0.00 0.00 28 1018.2
20260501233531 54 50 0.9 5.2 0.00 0.00 0.00 29 1018.2
20260501233044 54 130 1.7 5.2 0.00 0.00 0.00 27 1018.1
20260501232533 54 326 1.7 4.3 0.00 0.00 0.00 27 1018.2
20260501232028 54 345 1.7 4.3 0.00 0.00 0.00 27 1018.1
20260501231543 55 8 1.7 3.5 0.00 0.00 0.00 28 1018.2
20260501231028 55 12 1.7 4.3 0.00 0.00 0.00 29 1018.2
20260501230529 54 49 0.9 4.3 0.00 0.00 0.00 27 1018.2
20260501230041 55 349 1.7 3.5 0.00 0.00 0.00 27 1018.3
20260501225528 55 61 0.9 5.2 0.00 0.00 0.00 27 1018.4
20260501225027 54 342 0.9 5.2 0.00 0.00 0.00 27 1018.3
20260501224553 54 36 1.7 5.2 0.00 0.00 0.00 27 1018.4
20260501224030 55 321 0.9 7.0 0.00 0.00 0.00 28 1018.3
20260501223525 54 15 1.7 7.0 0.00 0.00 0.00 28 1018.4
20260501223047 54 354 1.7 5.2 0.00 0.00 0.00 28 1018.4
20260501222529 54 51 0.9 5.2 0.00 0.00 0.00 28 1018.3
20260501222027 55 6 1.7 7.0 0.00 0.00 0.00 27 1018.4
20260501221547 55 138 0.9 7.0 0.00 0.00 0.00 27 1018.4
20260501221028 55 19 0.0 6.1 0.00 0.00 0.00 29 1018.4
20260501220528 54 32 0.9 6.1 0.00 0.00 0.00 30 1018.5
20260501220048 54 251 2.6 6.1 0.00 0.00 0.00 28 1018.5
20260501215528 54 43 0.9 6.1 0.00 0.00 0.00 28 1018.5
20260501215028 54 39 2.6 6.1 0.00 0.00 0.00 28 1018.5
20260501214542 54 117 2.6 6.1 0.00 0.00 0.00 27 1018.6
20260501214028 55 10 1.7 7.8 0.00 0.00 0.00 27 1018.6
20260501213529 55 15 0.9 7.8 0.00 0.00 0.00 29 1018.5
20260501213045 55 344 0.9 2.6 0.00 0.00 0.00 28 1018.7
20260501212527 55 264 0.9 2.6 0.00 0.00 0.00 29 1018.7
20260501212025 55 274 0.9 7.0 0.00 0.00 0.00 29 1018.7
20260501211550 54 160 2.6 7.0 0.00 0.00 0.00 30 1018.8
20260501211025 54 266 2.6 7.0 0.00 0.00 0.00 27 1018.8
20260501210525 54 41 0.9 5.2 0.00 0.00 0.00 29 1018.8
20260501210057 54 4 2.6 8.7 0.00 0.00 0.00 28 1018.8
20260501205525 54 280 1.7 8.7 0.00 0.00 0.00 29 1018.9
20260501205031 53 327 3.5 8.7 0.00 0.00 0.00 30 1018.9
20260501204545 53 290 0.9 7.8 0.00 0.00 0.00 29 1018.8
20260501204028 53 344 3.5 7.8 0.00 0.00 0.00 29 1019.2
20260501203528 53 223 2.6 7.0 0.00 0.00 0.00 30 1019.0
20260501203042 53 257 0.9 7.0 0.00 0.00 0.00 30 1019.1
20260501202530 53 267 3.5 6.1 0.00 0.00 0.00 29 1019.2
20260501202028 54 38 1.7 6.1 0.00 0.00 0.00 29 1019.2
20260501201549 54 281 1.7 4.3 0.00 0.00 0.00 29 1019.1
20260501201031 54 352 1.7 5.2 0.00 0.00 0.00 30 1019.2
20260501200528 53 1 0.9 5.2 0.00 0.00 0.00 31 1019.3
20260501200040 53 337 1.7 5.2 0.00 0.00 0.00 29 1019.3
20260501195525 52 236 1.7 5.2 0.00 0.00 0.00 30 1019.3
20260501195031 52 340 1.7 9.6 0.00 0.00 0.00 31 1019.3